Location: *
(46.3500°N, 10.9000°E)
Time: 21:19:11
(UTC+00:00)

Vanguard 2 Rocket - All Passes

Search period start: 17 April 2021 00:00
Search period end: 27 April 2021 00:00
Orbit: 553 x 3326 km, 32.9° (Epoch: 17 April)

Date Brightness Start Highest point End Pass type
(mag) Time Alt. Az. Time Alt. Az. Time Alt. Az.
17 Apr - 11:03:02 10° S 11:15:56 24° SE 11:29:34 10° E daylight
17 Apr - 13:13:24 10° SW 13:31:13 44° SSE 13:47:38 10° E daylight
17 Apr - 15:28:37 10° WSW 15:47:44 52° S 16:02:11 10° ESE daylight
17 Apr - 17:46:36 10° W 18:03:10 41° SSW 18:14:20 10° SE daylight
17 Apr - 20:07:39 10° W 20:15:54 17° SW 20:22:18 10° SSW visible
18 Apr - 10:06:05 10° SSE 10:15:18 16° SE 10:25:18 10° E daylight
18 Apr - 12:13:20 10° SSW 12:29:41 38° SSE 12:46:19 10° E daylight
18 Apr - 14:27:02 10° WSW 14:46:03 52° S 15:02:00 10° ESE daylight
18 Apr - 16:44:01 10° W 17:02:17 47° SSW 17:15:13 10° SE daylight
18 Apr - 19:03:31 10° W 19:16:13 26° SW 19:25:17 10° S visible
19 Apr - 11:14:03 10° SSW 11:28:28 31° SE 11:44:16 10° E daylight
19 Apr - 13:26:01 10° SW 13:44:15 49° SSE 14:01:21 10° E daylight
19 Apr - 15:41:51 10° WSW 16:00:56 52° S 16:15:37 10° ESE daylight
19 Apr - 18:00:14 10° W 18:16:01 35° SSW 18:27:08 10° SSE daylight
19 Apr - 20:24:46 10° WSW 20:28:16 11° SW 20:31:25 10° SW visible
20 Apr - 10:15:47 10° S 10:27:39 23° SE 10:41:13 10° E daylight
20 Apr - 12:25:39 10° SW 12:42:32 44° SSE 13:00:09 10° E daylight
20 Apr - 14:40:09 10° WSW 14:59:14 53° S 15:15:31 10° ESE daylight
20 Apr - 16:57:30 10° W 17:15:17 43° SSW 17:28:17 10° SE daylight
20 Apr - 19:18:09 10° W 19:28:41 20° SW 19:36:50 10° S visible
21 Apr - 09:19:15 10° SSE 09:27:18 15° SE 09:36:25 10° E daylight
21 Apr - 11:25:57 10° SSW 11:41:07 38° SSE 11:58:21 10° E daylight
21 Apr - 13:38:59 10° WSW 13:57:22 53° S 14:14:55 10° ESE daylight
21 Apr - 15:55:13 10° W 16:14:02 49° SSW 16:28:51 10° SE daylight
21 Apr - 18:14:12 10° W 18:28:40 28° SW 18:39:25 10° SSE daylight
22 Apr - 10:27:03 10° SSW 10:40:06 30° SE 10:55:50 10° E daylight
22 Apr - 12:38:24 10° SW 12:55:31 49° SSE 13:13:47 10° E daylight
22 Apr - 14:53:27 10° WSW 15:12:24 53° S 15:28:52 10° ESE daylight
22 Apr - 17:11:10 10° W 17:28:06 37° SSW 17:40:58 10° SSE daylight
22 Apr - 19:34:23 10° WSW 19:41:00 13° SW 19:46:41 10° SSW visible
23 Apr - 09:29:08 10° S 09:39:35 22° SE 09:52:21 10° E daylight
23 Apr - 11:38:26 10° SW 11:53:55 44° SSE 12:12:07 10° E daylight
23 Apr - 13:52:11 10° WSW 14:10:31 54° S 14:28:20 10° ESE daylight
23 Apr - 16:08:45 10° W 16:27:00 44° SSW 16:41:48 10° SE daylight
23 Apr - 18:28:47 10° W 18:41:05 22° SW 18:50:55 10° S visible
24 Apr - 08:33:09 10° SSE 08:39:33 14° SE 08:46:57 10° ESE daylight
24 Apr - 10:39:08 10° SSW 10:52:42 37° SSE 11:09:52 10° E daylight
24 Apr - 12:51:29 10° WSW 13:08:36 53° S 13:27:16 10° ESE daylight
24 Apr - 15:06:53 10° W 15:25:29 49° SSW 15:41:59 10° SE daylight
24 Apr - 17:25:09 10° W 17:40:42 30° SW 17:53:08 10° SSE daylight
25 Apr - 09:40:33 10° SSW 09:52:00 29° SE 10:06:57 10° E daylight
25 Apr - 11:51:20 10° SW 12:06:52 49° SSE 12:25:41 10° E daylight
25 Apr - 14:05:34 10° WSW 14:23:40 53° S 14:41:35 10° ESE daylight
25 Apr - 16:22:28 10° W 16:39:48 38° SSW 16:54:21 10° SSE daylight
25 Apr - 18:44:43 10° W 18:53:22 15° SW 19:00:54 10° SSW visible
26 Apr - 08:43:00 10° S 08:51:49 20° SE 09:03:06 10° E daylight
26 Apr - 10:51:45 10° SW 11:05:30 43° SSE 11:23:34 10° E daylight
26 Apr - 13:04:46 10° WSW 13:21:45 54° S 13:40:37 10° ESE daylight
26 Apr - 15:20:29 10° W 15:38:27 44° SSW 15:54:48 10° SE daylight
26 Apr - 17:39:44 10° W 17:53:09 23° SW 18:04:29 10° S daylight
